| time (UTC) | temp F | wind direction | speed MPH | gust MPH | rain 1hr in | rain 24hr in | rain mn in | humidity % | barometer mb |
| 20260505200027 | 77 | 191 | 1.0 | 8.0 | 0.00 | 0.00 | 0.00 | 34 | 998.2 |
| 20260505194524 | 78 | 196 | 2.0 | 9.0 | 0.00 | 0.00 | 0.00 | 33 | 998.2 |
| 20260505193041 | 78 | 153 | 4.0 | 13.0 | 0.00 | 0.00 | 0.00 | 32 | 998.3 |
| 20260505191526 | 78 | 206 | 1.0 | 9.0 | 0.00 | 0.00 | 0.00 | 34 | 998.5 |
| 20260505190032 | 78 | 354 | 2.0 | 7.0 | 0.00 | 0.00 | 0.00 | 34 | 998.6 |
| 20260505184525 | 78 | 345 | 3.0 | 13.0 | 0.00 | 0.00 | 0.00 | 31 | 998.9 |
| 20260505183043 | 78 | 165 | 3.0 | 12.0 | 0.00 | 0.00 | 0.00 | 33 | 999.3 |
| 20260505181525 | 79 | 225 | 2.0 | 11.0 | 0.00 | 0.00 | 0.00 | 33 | 999.2 |
| 20260505180035 | 78 | 30 | 2.0 | 8.0 | 0.00 | 0.00 | 0.00 | 37 | 999.3 |
| 20260505174529 | 77 | 223 | 1.0 | 6.0 | 0.00 | 0.00 | 0.00 | 36 | 999.7 |
| 20260505173034 | 78 | 246 | 1.0 | 7.0 | 0.00 | 0.00 | 0.00 | 39 | 999.8 |
| 20260505171521 | 77 | 231 | 2.0 | 6.0 | 0.00 | 0.00 | 0.00 | 37 | 1000.1 |
| 20260505170016 | 75 | 103 | 2.0 | 8.0 | 0.00 | 0.00 | 0.00 | 40 | 1000.5 |
| 20260505164530 | 76 | 132 | 3.0 | 9.0 | 0.00 | 0.00 | 0.00 | 38 | 1000.6 |
| 20260505163024 | 75 | 175 | 2.0 | 10.0 | 0.00 | 0.00 | 0.00 | 40 | 1001.1 |
| 20260505161524 | 72 | 152 | 2.0 | 9.0 | 0.00 | 0.00 | 0.00 | 43 | 1001.4 |
| 20260505153027 | 71 | 206 | 0.0 | 4.0 | 0.00 | 0.02 | 0.00 | 46 | 1002.1 |
| 20260505151525 | 71 | 170 | 1.0 | 5.0 | 0.00 | 0.02 | 0.00 | 47 | 1002.2 |
| 20260505124526 | 58 | 171 | 2.0 | 7.0 | 0.00 | 0.02 | 0.00 | 61 | 1002.7 |
| 20260505123045 | 53 | 179 | 1.0 | 3.0 | 0.00 | 0.02 | 0.00 | 75 | 1002.7 |
| 20260505121518 | 47 | 171 | 0.0 | 0.0 | 0.00 | 0.02 | 0.00 | 82 | 1002.7 |
| 20260505120031 | 45 | 171 | 0.0 | 2.0 | 0.00 | 0.02 | 0.00 | 84 | 1002.8 |
| 20260505114530 | 44 | 85 | 0.0 | 2.0 | 0.00 | 0.02 | 0.00 | 85 | 1002.8 |
| 20260505113028 | 42 | 207 | 0.0 | 1.0 | 0.00 | 0.02 | 0.00 | 86 | 1003.1 |
| 20260505111529 | 42 | 228 | 0.0 | 1.0 | 0.00 | 0.02 | 0.00 | 85 | 1003.1 |
| 20260505101526 | 37 | 6 | 0.0 | 1.0 | 0.00 | 0.02 | 0.00 | 92 | 1002.8 |
| 20260505100032 | 37 | 271 | 0.0 | 0.0 | 0.00 | 0.02 | 0.00 | 92 | 1002.9 |
| 20260505094530 | 37 | 271 | 0.0 | 1.0 | 0.00 | 0.02 | 0.00 | 92 | 1003.2 |
| 20260505093024 | 37 | 271 | 0.0 | 0.0 | 0.00 | 0.02 | 0.00 | 92 | 1003.1 |
| 20260505091534 | 37 | 271 | 0.0 | 1.0 | 0.00 | 0.02 | 0.00 | 92 | 1003.1 |
| 20260505090043 | 37 | 255 | 0.0 | 1.0 | 0.00 | 0.02 | 0.00 | 92 | 1003.2 |
| 20260505084517 | 37 | 231 | 0.0 | 1.0 | 0.00 | 0.02 | 0.00 | 92 | 1003.4 |
| 20260505083021 | 37 | 213 | 0.0 | 0.0 | 0.00 | 0.02 | 0.00 | 92 | 1003.3 |
| 20260505081534 | 37 | 213 | 0.0 | 1.0 | 0.00 | 0.02 | 0.00 | 92 | 1003.3 |
| 20260505080008 | 37 | 206 | 0.0 | 1.0 | 0.00 | 0.02 | 0.00 | 92 | 1003.4 |
| 20260505074510 | 38 | 139 | 0.0 | 1.0 | 0.00 | 0.02 | 0.00 | 92 | 1003.5 |
| 20260505073017 | 38 | 139 | 0.0 | 0.0 | 0.00 | 0.02 | 0.00 | 92 | 1003.6 |
| 20260505071518 | 38 | 139 | 0.0 | 1.0 | 0.00 | 0.02 | 0.00 | 92 | 1003.6 |
| 20260505070026 | 38 | 139 | 0.0 | 0.0 | 0.00 | 0.02 | 0.00 | 92 | 1003.7 |
| 20260505064527 | 38 | 139 | 0.0 | 0.0 | 0.00 | 0.02 | 0.00 | 91 | 1003.7 |
| 20260505063011 | 38 | 139 | 0.0 | 0.0 | 0.00 | 0.02 | 0.00 | 91 | 1003.6 |
| 20260505061517 | 39 | 139 | 0.0 | 0.0 | 0.00 | 0.02 | 0.00 | 91 | 1003.6 |
| 20260505060025 | 39 | 139 | 0.0 | 0.0 | 0.00 | 0.02 | 0.00 | 91 | 1003.6 |
| 20260505054526 | 39 | 139 | 0.0 | 0.0 | 0.00 | 0.02 | 0.00 | 90 | 1003.6 |
| 20260505053026 | 40 | 139 | 0.0 | 0.0 | 0.00 | 0.02 | 0.00 | 90 | 1003.4 |
| 20260505051514 | 40 | 139 | 0.0 | 0.0 | 0.00 | 0.02 | 0.00 | 89 | 1003.5 |
| 20260505041545 | 42 | 139 | 0.0 | 0.0 | 0.00 | 0.02 | 0.00 | 88 | 1003.5 |
| 20260505040016 | 42 | 139 | 0.0 | 0.0 | 0.00 | 0.02 | 0.00 | 87 | 1003.3 |
| 20260505034519 | 43 | 139 | 0.0 | 0.0 | 0.00 | 0.02 | 0.02 | 87 | 1003.3 |
| 20260505033024 | 44 | 139 | 0.0 | 0.0 | 0.00 | 0.02 | 0.02 | 86 | 1003.1 |
| 20260505031532 | 44 | 139 | 0.0 | 0.0 | 0.00 | 0.02 | 0.02 | 85 | 1003.1 |
| 20260505030035 | 45 | 139 | 0.0 | 0.0 | 0.00 | 0.02 | 0.02 | 85 | 1003.1 |
| 20260505024518 | 46 | 139 | 0.0 | 0.0 | 0.00 | 0.02 | 0.02 | 84 | 1003.2 |
| 20260505023025 | 46 | 139 | 0.0 | 0.0 | 0.00 | 0.02 | 0.02 | 82 | 1003.2 |
| 20260505021528 | 47 | 139 | 0.0 | 0.0 | 0.00 | 0.02 | 0.02 | 79 | 1003.4 |
| 20260505020026 | 48 | 139 | 0.0 | 0.0 | 0.00 | 0.02 | 0.02 | 78 | 1003.4 |
| 20260505014529 | 49 | 139 | 0.0 | 0.0 | 0.00 | 0.02 | 0.02 | 77 | 1003.4 |
| 20260505013020 | 50 | 139 | 0.0 | 0.0 | 0.00 | 0.02 | 0.02 | 74 | 1003.2 |
| 20260505011528 | 50 | 139 | 0.0 | 1.0 | 0.00 | 0.02 | 0.02 | 73 | 1003.2 |
| 20260505010025 | 51 | 139 | 0.0 | 0.0 | 0.00 | 0.02 | 0.02 | 71 | 1002.9 |
| 20260505004534 | 52 | 139 | 0.0 | 0.0 | 0.00 | 0.02 | 0.02 | 69 | 1002.6 |
| 20260505003030 | 53 | 139 | 0.0 | 1.0 | 0.00 | 0.02 | 0.02 | 68 | 1002.5 |
| 20260505001518 | 54 | 139 | 0.0 | 1.0 | 0.00 | 0.02 | 0.02 | 66 | 1002.3 |
| 20260505000029 | 56 | 139 | 0.0 | 0.0 | 0.00 | 0.02 | 0.02 | 61 | 1001.9 |
| 20260504234508 | 58 | 139 | 0.0 | 1.0 | 0.00 | 0.02 | 0.02 | 57 | 1001.7 |
| 20260504233010 | 59 | 139 | 0.0 | 1.0 | 0.00 | 0.02 | 0.02 | 53 | 1001.5 |
| 20260504231516 | 60 | 210 | 0.0 | 1.0 | 0.00 | 0.02 | 0.02 | 49 | 1001.3 |
| 20260504230022 | 61 | 226 | 0.0 | 2.0 | 0.00 | 0.02 | 0.02 | 48 | 1001.2 |
| 20260504224525 | 61 | 229 | 1.0 | 2.0 | 0.00 | 0.02 | 0.02 | 45 | 1001.0 |
| 20260504223006 | 62 | 204 | 0.0 | 2.0 | 0.00 | 0.02 | 0.02 | 47 | 1001.0 |
| 20260504221516 | 62 | 103 | 0.0 | 3.0 | 0.00 | 0.02 | 0.02 | 46 | 1001.1 |
| 20260504220016 | 63 | 223 | 0.0 | 2.0 | 0.00 | 0.02 | 0.02 | 45 | 1001.0 |
| 20260504214523 | 64 | 181 | 1.0 | 2.0 | 0.00 | 0.02 | 0.02 | 43 | 1001.2 |
| 20260504213045 | 64 | 13 | 0.0 | 2.0 | 0.00 | 0.02 | 0.02 | 44 | 1001.2 |
| 20260504211516 | 63 | 224 | 1.0 | 6.0 | 0.00 | 0.02 | 0.02 | 43 | 1001.2 |
| 20260504210015 | 62 | 212 | 1.0 | 9.0 | 0.00 | 0.02 | 0.02 | 45 | 1001.4 |
| 20260504204519 | 62 | 258 | 2.0 | 9.0 | 0.00 | 0.02 | 0.02 | 45 | 1001.5 |
| 20260504203024 | 62 | 56 | 1.0 | 9.0 | 0.00 | 0.02 | 0.02 | 45 | 1001.5 |
| 20260504201531 | 62 | 36 | 3.0 | 11.0 | 0.00 | 0.02 | 0.02 | 47 | 1001.6 |